Year,Month,Day,Hour,Minute,Value (Times are PST for windspeed in km/hr)
2017,05,24,00,00,6.30
2017,05,24,00,01,2.50
2017,05,24,00,02,6.70
2017,05,24,00,03,9.60
2017,05,24,00,04,6.50
2017,05,24,00,05,6.80
2017,05,24,00,06,6.40
2017,05,24,00,07,3.00
2017,05,24,00,08,3.10
2017,05,24,00,09,2.90
2017,05,24,00,10,2.30
2017,05,24,00,11,3.10
2017,05,24,00,12,1.30
2017,05,24,00,13,3.80
2017,05,24,00,14,2.40
2017,05,24,00,15,3.10
2017,05,24,00,16,6.80
2017,05,24,00,17,2.60
2017,05,24,00,18,4.30
2017,05,24,00,19,4.20
2017,05,24,00,20,7.40
2017,05,24,00,21,6.90
2017,05,24,00,22,8.80
2017,05,24,00,23,9.70
2017,05,24,00,24,7.00
2017,05,24,00,25,9.80
2017,05,24,00,26,6.50
2017,05,24,00,27,5.40
2017,05,24,00,28,6.80
2017,05,24,00,29,5.60
2017,05,24,00,30,4.30
2017,05,24,00,31,12.30
2017,05,24,00,32,9.10
2017,05,24,00,33,3.50
2017,05,24,00,34,11.00
2017,05,24,00,35,13.90
2017,05,24,00,36,2.70
2017,05,24,00,37,8.50
2017,05,24,00,38,10.00
2017,05,24,00,39,7.40
2017,05,24,00,40,10.10
2017,05,24,00,41,10.70
2017,05,24,00,42,12.40
2017,05,24,00,43,6.80
2017,05,24,00,44,3.00
2017,05,24,00,45,6.50
2017,05,24,00,46,2.90
2017,05,24,00,47,6.50
2017,05,24,00,48,7.80
2017,05,24,00,49,3.70
2017,05,24,00,50,6.40
2017,05,24,00,51,8.40
2017,05,24,00,52,5.30
2017,05,24,00,53,6.30
2017,05,24,00,54,7.70
2017,05,24,00,55,8.90
2017,05,24,00,56,9.40
2017,05,24,00,57,4.40
2017,05,24,00,58,1.50
2017,05,24,00,59,1.80
2017,05,24,01,00,2.30
2017,05,24,01,01,2.10
2017,05,24,01,02,1.40
2017,05,24,01,03,3.00
2017,05,24,01,04,6.50
2017,05,24,01,05,5.10
2017,05,24,01,06,4.70
2017,05,24,01,07,6.90
2017,05,24,01,08,8.00
2017,05,24,01,09,6.60
2017,05,24,01,10,5.10
2017,05,24,01,11,10.20
2017,05,24,01,12,7.60
2017,05,24,01,13,5.50
2017,05,24,01,14,6.90
2017,05,24,01,15,7.20
2017,05,24,01,16,8.80
2017,05,24,01,17,5.60
2017,05,24,01,18,3.50
2017,05,24,01,19,5.20
2017,05,24,01,20,7.00
2017,05,24,01,21,4.50
2017,05,24,01,22,3.70
2017,05,24,01,23,5.10
2017,05,24,01,24,2.60
2017,05,24,01,25,6.60
2017,05,24,01,26,6.10
2017,05,24,01,27,4.80
2017,05,24,01,28,6.40
2017,05,24,01,29,7.40
2017,05,24,01,30,4.90
2017,05,24,01,31,7.10
2017,05,24,01,32,5.60
2017,05,24,01,33,4.70
2017,05,24,01,34,9.00
2017,05,24,01,35,5.70
2017,05,24,01,36,4.80
2017,05,24,01,37,9.70
2017,05,24,01,38,8.00
2017,05,24,01,39,5.90
2017,05,24,01,40,7.60
2017,05,24,01,41,5.10
2017,05,24,01,42,5.70
2017,05,24,01,43,4.30
2017,05,24,01,44,8.00
2017,05,24,01,45,6.10
2017,05,24,01,46,3.00
2017,05,24,01,47,6.00
2017,05,24,01,48,6.60
2017,05,24,01,49,10.00
2017,05,24,01,50,8.50
2017,05,24,01,51,8.80
2017,05,24,01,52,6.00
2017,05,24,01,53,6.00
2017,05,24,01,54,6.50
2017,05,24,01,55,7.20
2017,05,24,01,56,6.80
2017,05,24,01,57,5.20
2017,05,24,01,58,7.20
2017,05,24,01,59,5.00
2017,05,24,02,00,3.00
2017,05,24,02,01,3.20
2017,05,24,02,02,3.10
2017,05,24,02,03,4.90
2017,05,24,02,04,6.00
2017,05,24,02,05,6.60
2017,05,24,02,06,9.30
2017,05,24,02,07,6.80
2017,05,24,02,08,6.40
2017,05,24,02,09,7.20
2017,05,24,02,10,5.90
2017,05,24,02,11,6.80
2017,05,24,02,12,3.90
2017,05,24,02,13,7.10
2017,05,24,02,14,8.10
2017,05,24,02,15,6.00
2017,05,24,02,16,6.50
2017,05,24,02,17,8.00
2017,05,24,02,18,6.90
2017,05,24,02,19,4.80
2017,05,24,02,20,9.10
2017,05,24,02,21,7.40
2017,05,24,02,22,10.70
2017,05,24,02,23,8.50
2017,05,24,02,24,10.30
2017,05,24,02,25,7.70
2017,05,24,02,26,8.80
2017,05,24,02,27,4.20
2017,05,24,02,28,4.10
2017,05,24,02,29,4.50
2017,05,24,02,30,8.10
2017,05,24,02,31,10.20
2017,05,24,02,32,6.80
2017,05,24,02,33,7.10
2017,05,24,02,34,9.70
2017,05,24,02,35,9.70
2017,05,24,02,36,7.50
2017,05,24,02,37,10.10
2017,05,24,02,38,12.60
2017,05,24,02,39,7.10
2017,05,24,02,40,5.10
2017,05,24,02,41,6.60
2017,05,24,02,42,6.20
2017,05,24,02,43,2.30
2017,05,24,02,44,4.00
2017,05,24,02,45,3.00
2017,05,24,02,46,3.50
2017,05,24,02,47,4.90
2017,05,24,02,48,5.10
2017,05,24,02,49,3.30
2017,05,24,02,50,9.30
2017,05,24,02,51,6.20
2017,05,24,02,52,5.40
2017,05,24,02,53,3.50
2017,05,24,02,54,2.40
2017,05,24,02,55,1.60
2017,05,24,02,56,4.00
2017,05,24,02,57,4.30
2017,05,24,02,58,0.90
2017,05,24,02,59,2.80
2017,05,24,03,00,7.20
2017,05,24,03,01,1.50
2017,05,24,03,02,3.70
2017,05,24,03,03,5.80
2017,05,24,03,04,5.70
2017,05,24,03,05,5.50
2017,05,24,03,06,6.00
2017,05,24,03,07,6.80
2017,05,24,03,08,5.40
2017,05,24,03,09,2.10
2017,05,24,03,10,1.80
2017,05,24,03,11,3.50
2017,05,24,03,12,2.30
2017,05,24,03,13,2.90
2017,05,24,03,14,3.30
2017,05,24,03,15,3.60
2017,05,24,03,16,6.30
2017,05,24,03,17,13.80
2017,05,24,03,18,7.30
2017,05,24,03,19,11.10
2017,05,24,03,20,6.10
2017,05,24,03,21,7.30
2017,05,24,03,22,11.10
2017,05,24,03,23,6.00
2017,05,24,03,24,6.20
2017,05,24,03,25,7.60
2017,05,24,03,26,13.60
2017,05,24,03,27,8.90
2017,05,24,03,28,10.90
2017,05,24,03,29,12.50
2017,05,24,03,30,11.90
2017,05,24,03,31,13.40
2017,05,24,03,32,14.70
2017,05,24,03,33,17.20
2017,05,24,03,34,10.10
2017,05,24,03,35,10.90
2017,05,24,03,36,4.70
2017,05,24,03,37,5.30
2017,05,24,03,38,5.00
2017,05,24,03,39,9.10
2017,05,24,03,40,4.00
2017,05,24,03,41,8.00
2017,05,24,03,42,10.90
2017,05,24,03,43,11.70
2017,05,24,03,44,11.30
2017,05,24,03,45,8.60
2017,05,24,03,46,7.20
2017,05,24,03,47,5.50
2017,05,24,03,48,6.10
2017,05,24,03,49,10.10
2017,05,24,03,50,10.80
2017,05,24,03,51,8.10
2017,05,24,03,52,4.70
2017,05,24,03,53,11.60
2017,05,24,03,54,14.00
2017,05,24,03,55,9.20
2017,05,24,03,56,6.00
2017,05,24,03,57,3.90
2017,05,24,03,58,5.70
2017,05,24,03,59,6.50
2017,05,24,04,00,5.70
2017,05,24,04,01,7.00
2017,05,24,04,02,4.00
2017,05,24,04,03,4.70
2017,05,24,04,04,4.40
2017,05,24,04,05,5.40
2017,05,24,04,06,3.70
2017,05,24,04,07,8.20
2017,05,24,04,08,7.60
2017,05,24,04,09,7.10
2017,05,24,04,10,6.50
2017,05,24,04,11,6.40
2017,05,24,04,12,6.50
2017,05,24,04,13,5.80
2017,05,24,04,14,4.70
2017,05,24,04,15,6.30
2017,05,24,04,16,7.50
2017,05,24,04,17,7.40
2017,05,24,04,18,7.70
2017,05,24,04,19,7.00
2017,05,24,04,20,8.80
2017,05,24,04,21,8.40
2017,05,24,04,22,7.50
2017,05,24,04,23,7.70
2017,05,24,04,24,9.30
2017,05,24,04,25,6.80
2017,05,24,04,26,7.60
2017,05,24,04,27,6.80
2017,05,24,04,28,9.00
2017,05,24,04,29,6.60
2017,05,24,04,30,4.20
2017,05,24,04,31,4.30
2017,05,24,04,32,5.70
2017,05,24,04,33,6.90
2017,05,24,04,34,7.80
2017,05,24,04,35,8.30
2017,05,24,04,36,8.90
2017,05,24,04,37,10.80
2017,05,24,04,38,5.80
2017,05,24,04,39,7.90
2017,05,24,04,40,9.30
2017,05,24,04,41,6.90
2017,05,24,04,42,5.60
2017,05,24,04,43,3.50
2017,05,24,04,44,4.80
2017,05,24,04,45,6.90
2017,05,24,04,46,6.80
2017,05,24,04,47,5.90
2017,05,24,04,48,7.10
2017,05,24,04,49,4.80
2017,05,24,04,50,8.70
2017,05,24,04,51,6.80
2017,05,24,04,52,4.50
2017,05,24,04,53,6.20
2017,05,24,04,54,7.20
2017,05,24,04,55,8.00
2017,05,24,04,56,11.40
2017,05,24,04,57,5.40
2017,05,24,04,58,4.80
2017,05,24,04,59,8.40
2017,05,24,05,00,6.10
2017,05,24,05,01,8.10
2017,05,24,05,02,4.70
2017,05,24,05,03,4.50
2017,05,24,05,04,4.80
2017,05,24,05,05,8.20
2017,05,24,05,06,9.30
2017,05,24,05,07,7.60
2017,05,24,05,08,8.70
2017,05,24,05,09,7.10
2017,05,24,05,10,5.70
2017,05,24,05,11,6.40
2017,05,24,05,12,8.50
2017,05,24,05,13,6.50
2017,05,24,05,14,3.90
2017,05,24,05,15,5.10
2017,05,24,05,16,7.10
2017,05,24,05,17,7.70
2017,05,24,05,18,5.00
2017,05,24,05,19,3.40
2017,05,24,05,20,4.00
2017,05,24,05,21,2.70
2017,05,24,05,22,1.40
2017,05,24,05,23,0.00
2017,05,24,05,24,1.80
2017,05,24,05,25,2.80
2017,05,24,05,26,0.60
2017,05,24,05,27,0.90
2017,05,24,05,28,1.80
2017,05,24,05,29,0.80
2017,05,24,05,30,0.80
2017,05,24,05,31,0.10
2017,05,24,05,32,0.00
2017,05,24,05,33,0.00
2017,05,24,05,34,0.00
2017,05,24,05,35,0.40
2017,05,24,05,36,1.20
2017,05,24,05,37,0.70
2017,05,24,05,38,1.10
2017,05,24,05,39,0.00
2017,05,24,05,40,1.50
2017,05,24,05,41,0.40
2017,05,24,05,42,0.00
2017,05,24,05,43,0.10
2017,05,24,05,44,0.00
2017,05,24,05,45,0.00
2017,05,24,05,46,0.00
2017,05,24,05,47,0.00
2017,05,24,05,48,0.00
2017,05,24,05,49,0.00
2017,05,24,05,50,0.00
2017,05,24,05,51,0.00
2017,05,24,05,52,0.50
2017,05,24,05,53,1.60
2017,05,24,05,54,3.20
2017,05,24,05,55,2.00
2017,05,24,05,56,1.50
2017,05,24,05,57,0.20
2017,05,24,05,58,0.00
2017,05,24,05,59,0.00
2017,05,24,06,00,0.00
2017,05,24,06,01,0.00
2017,05,24,06,02,0.00
2017,05,24,06,03,0.00
2017,05,24,06,04,0.00
2017,05,24,06,05,0.00
2017,05,24,06,06,0.00
2017,05,24,06,07,0.00
2017,05,24,06,08,0.00
2017,05,24,06,09,0.20
2017,05,24,06,10,0.00
2017,05,24,06,11,0.60
2017,05,24,06,12,0.20
2017,05,24,06,13,0.00
2017,05,24,06,14,0.00
2017,05,24,06,15,0.00
2017,05,24,06,16,0.10
2017,05,24,06,17,0.00
2017,05,24,06,18,0.00
2017,05,24,06,19,0.00
2017,05,24,06,20,0.00
2017,05,24,06,21,0.00
2017,05,24,06,22,0.00
2017,05,24,06,23,0.40
2017,05,24,06,24,2.40
2017,05,24,06,25,2.60
2017,05,24,06,26,1.50
2017,05,24,06,27,1.60
2017,05,24,06,28,0.60
2017,05,24,06,29,0.00
2017,05,24,06,30,2.20
2017,05,24,06,31,4.50
2017,05,24,06,32,4.70
2017,05,24,06,33,4.90
2017,05,24,06,34,2.30
2017,05,24,06,35,4.90
2017,05,24,06,36,2.30
2017,05,24,06,37,4.80
2017,05,24,06,38,3.80
2017,05,24,06,39,2.50
2017,05,24,06,40,2.10
2017,05,24,06,41,4.70
2017,05,24,06,42,2.50
2017,05,24,06,43,3.70
2017,05,24,06,44,2.70
2017,05,24,06,45,0.40
2017,05,24,06,46,2.30
2017,05,24,06,47,1.20
2017,05,24,06,48,1.10
2017,05,24,06,49,0.90
2017,05,24,06,50,1.90
2017,05,24,06,51,4.30
2017,05,24,06,52,2.60
2017,05,24,06,53,2.30
2017,05,24,06,54,3.40
2017,05,24,06,55,1.90
2017,05,24,06,56,0.30
2017,05,24,06,57,1.10
2017,05,24,06,58,1.50
2017,05,24,06,59,4.00
2017,05,24,07,00,3.10
2017,05,24,07,01,3.20
2017,05,24,07,02,5.10
2017,05,24,07,03,1.90
2017,05,24,07,04,2.80
2017,05,24,07,05,2.50
2017,05,24,07,06,3.90
2017,05,24,07,07,1.10
2017,05,24,07,08,0.50
2017,05,24,07,09,1.30
2017,05,24,07,10,1.80
2017,05,24,07,11,0.40
2017,05,24,07,12,0.60
2017,05,24,07,13,0.60
2017,05,24,07,14,2.20
2017,05,24,07,15,2.80
2017,05,24,07,16,1.00
2017,05,24,07,17,1.10
2017,05,24,07,18,2.30
2017,05,24,07,19,0.20
2017,05,24,07,20,0.60
2017,05,24,07,21,2.40
2017,05,24,07,22,3.40
2017,05,24,07,23,4.70
2017,05,24,07,24,4.60
2017,05,24,07,25,4.30
2017,05,24,07,26,1.00
2017,05,24,07,27,3.60
2017,05,24,07,28,1.20
2017,05,24,07,29,1.60
2017,05,24,07,30,5.60
2017,05,24,07,31,4.60
2017,05,24,07,32,5.10
2017,05,24,07,33,5.20
2017,05,24,07,34,2.90
2017,05,24,07,35,4.20
2017,05,24,07,36,7.50
2017,05,24,07,37,7.10
2017,05,24,07,38,5.10
2017,05,24,07,39,4.90
2017,05,24,07,40,6.70
2017,05,24,07,41,5.50
2017,05,24,07,42,6.30
2017,05,24,07,43,5.50
2017,05,24,07,44,4.10
2017,05,24,07,45,4.70
2017,05,24,07,46,4.90
2017,05,24,07,47,1.20
2017,05,24,07,48,3.10
2017,05,24,07,49,5.30
2017,05,24,07,50,11.30
2017,05,24,07,51,7.20
2017,05,24,07,52,4.40
2017,05,24,07,53,6.00
2017,05,24,07,54,6.50
2017,05,24,07,55,5.20
2017,05,24,07,56,6.30
2017,05,24,07,57,8.90
2017,05,24,07,58,10.10
2017,05,24,07,59,7.60
2017,05,24,08,00,7.20
2017,05,24,08,01,9.50
2017,05,24,08,02,8.50
2017,05,24,08,03,5.30
2017,05,24,08,04,3.90
2017,05,24,08,05,2.70
2017,05,24,08,06,2.30
2017,05,24,08,07,1.80
2017,05,24,08,08,6.90
2017,05,24,08,09,7.60
2017,05,24,08,10,7.10
2017,05,24,08,11,5.10
2017,05,24,08,12,5.80
2017,05,24,08,13,10.70
2017,05,24,08,14,5.60
2017,05,24,08,15,8.50
2017,05,24,08,16,12.10
2017,05,24,08,17,11.00
2017,05,24,08,18,6.40
2017,05,24,08,19,4.90
2017,05,24,08,20,8.20
2017,05,24,08,21,5.10
2017,05,24,08,22,6.40
2017,05,24,08,23,8.60
2017,05,24,08,24,6.40
2017,05,24,08,25,3.00
2017,05,24,08,26,6.40
2017,05,24,08,27,8.10
2017,05,24,08,28,6.60
2017,05,24,08,29,5.20
2017,05,24,08,30,4.30
2017,05,24,08,31,7.70
2017,05,24,08,32,6.30
2017,05,24,08,33,7.60
2017,05,24,08,34,6.30
2017,05,24,08,35,3.60
2017,05,24,08,36,4.40
2017,05,24,08,37,10.60
2017,05,24,08,38,4.00
2017,05,24,08,39,6.10
2017,05,24,08,40,10.30
2017,05,24,08,41,7.40
2017,05,24,08,42,3.70
2017,05,24,08,43,6.40
2017,05,24,08,44,5.80
2017,05,24,08,45,7.60
2017,05,24,08,46,7.60
2017,05,24,08,47,10.70
2017,05,24,08,48,7.60
2017,05,24,08,49,4.50
2017,05,24,08,50,2.90
2017,05,24,08,51,2.90
2017,05,24,08,52,3.90
2017,05,24,08,53,4.20
2017,05,24,08,54,1.30
2017,05,24,08,55,3.70
2017,05,24,08,56,6.40
2017,05,24,08,57,8.60
2017,05,24,08,58,3.20
2017,05,24,08,59,3.90
2017,05,24,09,00,5.50
2017,05,24,09,01,5.50
2017,05,24,09,02,5.20
2017,05,24,09,03,7.20
2017,05,24,09,04,5.70
2017,05,24,09,05,5.80
2017,05,24,09,06,9.80
2017,05,24,09,07,4.80
2017,05,24,09,08,6.30
2017,05,24,09,09,9.00
2017,05,24,09,10,14.90
2017,05,24,09,11,15.80
2017,05,24,09,12,8.20
2017,05,24,09,13,6.70
2017,05,24,09,14,10.30
2017,05,24,09,15,10.90
2017,05,24,09,16,10.50
2017,05,24,09,17,12.40
2017,05,24,09,18,12.60
2017,05,24,09,19,11.30
2017,05,24,09,20,9.30
2017,05,24,09,21,4.80
2017,05,24,09,22,4.70
2017,05,24,09,23,9.70
2017,05,24,09,24,13.80
2017,05,24,09,25,11.40
2017,05,24,09,26,8.50
2017,05,24,09,27,4.70
2017,05,24,09,28,8.20
2017,05,24,09,29,4.80
2017,05,24,09,30,5.40
2017,05,24,09,31,5.60
2017,05,24,09,32,3.80
2017,05,24,09,33,2.70
2017,05,24,09,34,6.00
2017,05,24,09,35,4.70
2017,05,24,09,36,6.40
2017,05,24,09,37,6.90
2017,05,24,09,38,9.90
2017,05,24,09,39,6.40
2017,05,24,09,40,4.80
2017,05,24,09,41,5.50
2017,05,24,09,42,10.80
2017,05,24,09,43,7.60
2017,05,24,09,44,4.60
2017,05,24,09,45,10.40
2017,05,24,09,46,7.80
2017,05,24,09,47,4.70
2017,05,24,09,48,3.30
2017,05,24,09,49,4.20
2017,05,24,09,50,7.80
2017,05,24,09,51,8.90
2017,05,24,09,52,1.60
2017,05,24,09,53,4.30
2017,05,24,09,54,3.90
2017,05,24,09,55,4.40
2017,05,24,09,56,2.70
2017,05,24,09,57,6.80
2017,05,24,09,58,3.10
2017,05,24,09,59,3.30
2017,05,24,10,00,3.70
2017,05,24,10,01,4.00
2017,05,24,10,02,6.60
2017,05,24,10,03,5.60
2017,05,24,10,04,4.30
2017,05,24,10,05,1.90
2017,05,24,10,06,3.90
2017,05,24,10,07,6.10
2017,05,24,10,08,3.20
2017,05,24,10,09,7.00
2017,05,24,10,10,6.30
2017,05,24,10,11,2.80
2017,05,24,10,12,2.00
2017,05,24,10,13,2.20
2017,05,24,10,14,5.10
2017,05,24,10,15,5.50
2017,05,24,10,16,2.70
2017,05,24,10,17,1.90
2017,05,24,10,18,1.20
2017,05,24,10,19,1.80
2017,05,24,10,20,5.30
2017,05,24,10,21,11.00
2017,05,24,10,22,5.70
2017,05,24,10,23,6.80
2017,05,24,10,24,4.30
2017,05,24,10,25,4.50
2017,05,24,10,26,4.90
2017,05,24,10,27,3.60
2017,05,24,10,28,2.40
2017,05,24,10,29,5.70
2017,05,24,10,30,2.80
2017,05,24,10,31,4.30
2017,05,24,10,32,4.40
2017,05,24,10,33,7.50
2017,05,24,10,34,5.30
2017,05,24,10,35,4.00
2017,05,24,10,36,3.70
2017,05,24,10,37,3.90
2017,05,24,10,38,5.80
2017,05,24,10,39,4.40
2017,05,24,10,40,2.80
2017,05,24,10,41,3.00
2017,05,24,10,42,6.40
2017,05,24,10,43,3.10
2017,05,24,10,44,8.00
2017,05,24,10,45,5.00
2017,05,24,10,46,6.50
2017,05,24,10,47,7.30
2017,05,24,10,48,2.30
2017,05,24,10,49,1.30
2017,05,24,10,50,2.00
2017,05,24,10,51,1.10
2017,05,24,10,52,2.70
2017,05,24,10,53,7.40
2017,05,24,10,54,4.70
2017,05,24,10,55,7.60
2017,05,24,10,56,1.60
2017,05,24,10,57,0.60
2017,05,24,10,58,5.10
2017,05,24,10,59,1.80
2017,05,24,11,00,3.40
2017,05,24,11,01,5.50
2017,05,24,11,02,5.00
2017,05,24,11,03,4.80
2017,05,24,11,04,4.90
2017,05,24,11,05,1.40
2017,05,24,11,06,1.30
2017,05,24,11,07,2.60
2017,05,24,11,08,3.80
2017,05,24,11,09,2.70
2017,05,24,11,10,5.00
2017,05,24,11,11,1.90
2017,05,24,11,12,1.30
2017,05,24,11,13,4.30
2017,05,24,11,14,1.20
2017,05,24,11,15,2.20
2017,05,24,11,16,3.90
2017,05,24,11,17,2.60
2017,05,24,11,18,1.40
2017,05,24,11,19,1.80
2017,05,24,11,20,3.40
2017,05,24,11,21,1.70
2017,05,24,11,22,4.70
2017,05,24,11,23,3.20
2017,05,24,11,24,0.80
2017,05,24,11,25,3.30
2017,05,24,11,26,2.30
2017,05,24,11,27,4.00
2017,05,24,11,28,4.80
2017,05,24,11,29,2.90
2017,05,24,11,30,3.00
2017,05,24,11,31,0.80
2017,05,24,11,32,1.30
2017,05,24,11,33,3.10
2017,05,24,11,34,3.70
2017,05,24,11,35,0.60
2017,05,24,11,36,0.30
2017,05,24,11,37,3.00
2017,05,24,11,38,1.10
2017,05,24,11,39,0.50
2017,05,24,11,40,2.90
2017,05,24,11,41,3.80
2017,05,24,11,42,2.60
2017,05,24,11,43,2.00
2017,05,24,11,44,2.10
2017,05,24,11,45,3.50
2017,05,24,11,46,2.20
2017,05,24,11,47,4.30
2017,05,24,11,48,3.30
2017,05,24,11,49,5.50
2017,05,24,11,50,0.30
2017,05,24,11,51,3.10
2017,05,24,11,52,3.70
2017,05,24,11,53,1.10
2017,05,24,11,54,1.80
2017,05,24,11,55,2.80
2017,05,24,11,56,2.50
2017,05,24,11,57,0.90
2017,05,24,11,58,2.60
2017,05,24,11,59,4.60
2017,05,24,12,00,4.30
2017,05,24,12,01,1.40
2017,05,24,12,02,3.70
2017,05,24,12,03,2.20
2017,05,24,12,04,4.00
2017,05,24,12,05,4.70
2017,05,24,12,06,3.10
2017,05,24,12,07,3.10
2017,05,24,12,08,2.10
2017,05,24,12,09,2.10
2017,05,24,12,10,2.20
2017,05,24,12,11,4.90
2017,05,24,12,12,4.00
2017,05,24,12,13,1.40
2017,05,24,12,14,2.10
2017,05,24,12,15,4.70
2017,05,24,12,16,6.30
2017,05,24,12,17,2.10
2017,05,24,12,18,3.70
2017,05,24,12,19,4.70
2017,05,24,12,20,4.90
2017,05,24,12,21,3.40
2017,05,24,12,22,3.30
2017,05,24,12,23,2.70
2017,05,24,12,24,3.50
2017,05,24,12,25,3.70
2017,05,24,12,26,6.70
2017,05,24,12,27,1.50
2017,05,24,12,28,1.70
2017,05,24,12,29,2.80
2017,05,24,12,30,4.70
2017,05,24,12,31,4.00
2017,05,24,12,32,3.00
2017,05,24,12,33,1.80
2017,05,24,12,34,8.30
2017,05,24,12,35,10.00
2017,05,24,12,36,4.70
2017,05,24,12,37,2.40
2017,05,24,12,38,3.30
2017,05,24,12,39,6.10
2017,05,24,12,40,1.90
2017,05,24,12,41,2.80
2017,05,24,12,42,3.90
2017,05,24,12,43,1.50
2017,05,24,12,44,2.60
2017,05,24,12,45,3.10
2017,05,24,12,46,4.30
2017,05,24,12,47,5.50
2017,05,24,12,48,7.20
2017,05,24,12,49,4.30
2017,05,24,12,50,2.40
2017,05,24,12,51,2.70
2017,05,24,12,52,2.40
2017,05,24,12,53,3.60
2017,05,24,12,54,5.20
2017,05,24,12,55,3.80
2017,05,24,12,56,0.70
2017,05,24,12,57,3.00
2017,05,24,12,58,2.30
2017,05,24,12,59,1.10
2017,05,24,13,00,4.90
2017,05,24,13,01,2.50
2017,05,24,13,02,1.80
2017,05,24,13,03,2.40
2017,05,24,13,04,2.20
2017,05,24,13,05,3.00
2017,05,24,13,06,1.30
2017,05,24,13,07,2.30
2017,05,24,13,08,1.60
2017,05,24,13,09,3.10
2017,05,24,13,10,4.70
2017,05,24,13,11,2.80
2017,05,24,13,12,3.80
2017,05,24,13,13,7.40
2017,05,24,13,14,4.60
2017,05,24,13,15,2.60
2017,05,24,13,16,3.20
2017,05,24,13,17,3.90
2017,05,24,13,18,2.40
2017,05,24,13,19,2.30
2017,05,24,13,20,0.00
2017,05,24,13,21,2.30
2017,05,24,13,22,2.10
2017,05,24,13,23,2.60
2017,05,24,13,24,4.30
2017,05,24,13,25,2.90
2017,05,24,13,26,1.10
2017,05,24,13,27,4.30
2017,05,24,13,28,4.30
2017,05,24,13,29,3.40
2017,05,24,13,30,0.70
2017,05,24,13,31,3.60
2017,05,24,13,32,0.40
2017,05,24,13,33,2.40
2017,05,24,13,34,8.00
2017,05,24,13,35,6.80
2017,05,24,13,36,7.60
2017,05,24,13,37,1.00
2017,05,24,13,38,1.90
2017,05,24,13,39,1.40
2017,05,24,13,40,0.10
2017,05,24,13,41,0.40
2017,05,24,13,42,0.20
2017,05,24,13,43,1.80
2017,05,24,13,44,3.50
2017,05,24,13,45,0.20
2017,05,24,13,46,0.60
2017,05,24,13,47,0.80
2017,05,24,13,48,2.10
2017,05,24,13,49,4.40
2017,05,24,13,50,1.90
2017,05,24,13,51,4.30
2017,05,24,13,52,2.20
2017,05,24,13,53,1.50
2017,05,24,13,54,2.90
2017,05,24,13,55,2.00
2017,05,24,13,56,1.90
2017,05,24,13,57,4.70
2017,05,24,13,58,4.50
2017,05,24,13,59,3.20
2017,05,24,14,00,5.70
2017,05,24,14,01,3.50
2017,05,24,14,02,2.60
2017,05,24,14,03,2.10
2017,05,24,14,04,3.80
2017,05,24,14,05,4.40
2017,05,24,14,06,2.60
2017,05,24,14,07,4.20
2017,05,24,14,08,3.70
2017,05,24,14,09,1.00
2017,05,24,14,10,1.60
2017,05,24,14,11,2.80
2017,05,24,14,12,1.20
2017,05,24,14,13,5.30
2017,05,24,14,14,2.10
2017,05,24,14,15,3.70
2017,05,24,14,16,3.60
2017,05,24,14,17,3.00
2017,05,24,14,18,4.10
2017,05,24,14,19,3.90
2017,05,24,14,20,3.10
2017,05,24,14,21,3.40
2017,05,24,14,22,4.80
2017,05,24,14,23,2.90
2017,05,24,14,24,4.30
2017,05,24,14,25,2.00
2017,05,24,14,26,5.10
2017,05,24,14,27,5.60
2017,05,24,14,28,2.60
2017,05,24,14,29,3.90
2017,05,24,14,30,1.40
2017,05,24,14,31,2.50
2017,05,24,14,32,2.70
2017,05,24,14,33,2.30
2017,05,24,14,34,3.90
2017,05,24,14,35,0.60
2017,05,24,14,36,1.20
2017,05,24,14,37,3.10
2017,05,24,14,38,1.50
2017,05,24,14,39,1.00
2017,05,24,14,40,1.90
2017,05,24,14,41,5.90
2017,05,24,14,42,4.00
2017,05,24,14,43,4.00
2017,05,24,14,44,1.50
2017,05,24,14,45,4.70
2017,05,24,14,46,1.60
2017,05,24,14,47,1.10
2017,05,24,14,48,1.80
2017,05,24,14,49,3.00
2017,05,24,14,50,0.80
2017,05,24,14,51,1.60
2017,05,24,14,52,3.80
2017,05,24,14,53,1.10
2017,05,24,14,54,1.20
2017,05,24,14,55,3.00
2017,05,24,14,56,2.60
2017,05,24,14,57,1.90
2017,05,24,14,58,1.90
2017,05,24,14,59,1.00
2017,05,24,15,00,0.70
2017,05,24,15,01,0.70
2017,05,24,15,02,0.60
2017,05,24,15,03,0.20
2017,05,24,15,04,4.00
2017,05,24,15,05,3.20
2017,05,24,15,06,3.90
2017,05,24,15,07,3.50
2017,05,24,15,08,2.00
2017,05,24,15,09,2.00
2017,05,24,15,10,1.20
2017,05,24,15,11,1.40
2017,05,24,15,12,1.20
2017,05,24,15,13,3.40
2017,05,24,15,14,0.90
2017,05,24,15,15,0.40
2017,05,24,15,16,1.80
2017,05,24,15,17,2.60
2017,05,24,15,18,1.40
2017,05,24,15,19,1.60
2017,05,24,15,20,0.90
2017,05,24,15,21,2.20
2017,05,24,15,22,3.10
2017,05,24,15,23,1.40
2017,05,24,15,24,2.60
2017,05,24,15,25,0.30
2017,05,24,15,26,1.60
2017,05,24,15,27,2.80
2017,05,24,15,28,2.70
2017,05,24,15,29,0.20
2017,05,24,15,30,3.30
2017,05,24,15,31,2.40
2017,05,24,15,32,0.90
2017,05,24,15,33,2.10
2017,05,24,15,34,3.00
2017,05,24,15,35,0.80
2017,05,24,15,36,3.50
2017,05,24,15,37,2.10
2017,05,24,15,38,0.50
2017,05,24,15,39,2.20
2017,05,24,15,40,0.60
2017,05,24,15,41,1.90
2017,05,24,15,42,3.20
2017,05,24,15,43,1.40
2017,05,24,15,44,0.00
2017,05,24,15,45,4.70
2017,05,24,15,46,3.00
2017,05,24,15,47,1.00
2017,05,24,15,48,3.60
2017,05,24,15,49,1.10
2017,05,24,15,50,3.30
2017,05,24,15,51,1.10
2017,05,24,15,52,0.60
2017,05,24,15,53,3.70
2017,05,24,15,54,3.50
2017,05,24,15,55,1.90
2017,05,24,15,56,3.00
2017,05,24,15,57,3.50
2017,05,24,15,58,1.00
2017,05,24,15,59,3.40
2017,05,24,16,00,0.50
2017,05,24,16,01,0.60
2017,05,24,16,02,1.90
2017,05,24,16,03,3.90
2017,05,24,16,04,4.70
2017,05,24,16,05,3.90
2017,05,24,16,06,1.40
2017,05,24,16,07,3.30
2017,05,24,16,08,4.30
2017,05,24,16,09,4.30
2017,05,24,16,10,2.70
2017,05,24,16,11,1.50
2017,05,24,16,12,1.40
2017,05,24,16,13,3.40
2017,05,24,16,14,2.40
2017,05,24,16,15,4.10
2017,05,24,16,16,3.00
2017,05,24,16,17,3.70
2017,05,24,16,18,6.10
2017,05,24,16,19,2.30
2017,05,24,16,20,2.90
2017,05,24,16,21,0.90
2017,05,24,16,22,0.20
2017,05,24,16,23,0.20
2017,05,24,16,24,0.30
2017,05,24,16,25,0.90
2017,05,24,16,26,0.90
2017,05,24,16,27,2.70
2017,05,24,16,28,0.50
2017,05,24,16,29,0.70
2017,05,24,16,30,5.80
2017,05,24,16,31,5.00
2017,05,24,16,32,5.50
2017,05,24,16,33,4.30
2017,05,24,16,34,1.90
2017,05,24,16,35,1.90
2017,05,24,16,36,1.40
2017,05,24,16,37,2.70
2017,05,24,16,38,6.80
2017,05,24,16,39,5.60
2017,05,24,16,40,4.50
2017,05,24,16,41,4.10
2017,05,24,16,42,9.90
2017,05,24,16,43,6.90
2017,05,24,16,44,3.80
2017,05,24,16,45,2.40
2017,05,24,16,46,5.80
2017,05,24,16,47,3.40
2017,05,24,16,48,0.60
2017,05,24,16,49,0.80
2017,05,24,16,50,3.90
2017,05,24,16,51,3.80
2017,05,24,16,52,4.00
2017,05,24,16,53,1.60
2017,05,24,16,54,2.10
2017,05,24,16,55,3.50
2017,05,24,16,56,5.30
2017,05,24,16,57,2.30
2017,05,24,16,58,1.60
2017,05,24,16,59,2.50
2017,05,24,17,00,3.00
2017,05,24,17,01,3.50
2017,05,24,17,02,4.40
2017,05,24,17,03,3.70
2017,05,24,17,04,2.70
2017,05,24,17,05,2.20
2017,05,24,17,06,1.20
2017,05,24,17,07,3.10
2017,05,24,17,08,0.90
2017,05,24,17,09,2.30
2017,05,24,17,10,1.20
2017,05,24,17,11,2.10
2017,05,24,17,12,0.20
2017,05,24,17,13,2.10
2017,05,24,17,14,1.10
2017,05,24,17,15,3.00
2017,05,24,17,16,2.70
2017,05,24,17,17,0.20
2017,05,24,17,18,2.10
2017,05,24,17,19,1.90
2017,05,24,17,20,2.50
2017,05,24,17,21,1.70
2017,05,24,17,22,1.10
2017,05,24,17,23,1.50
2017,05,24,17,24,1.50
2017,05,24,17,25,0.70
2017,05,24,17,26,1.90
2017,05,24,17,27,0.60
2017,05,24,17,28,2.00
2017,05,24,17,29,1.00
2017,05,24,17,30,0.90
2017,05,24,17,31,2.30
2017,05,24,17,32,1.70
2017,05,24,17,33,1.10
2017,05,24,17,34,3.30
2017,05,24,17,35,0.60
2017,05,24,17,36,0.40
2017,05,24,17,37,1.20
2017,05,24,17,38,1.60
2017,05,24,17,39,1.00
2017,05,24,17,40,2.20
2017,05,24,17,41,1.40
2017,05,24,17,42,1.60
2017,05,24,17,43,4.50
2017,05,24,17,44,5.10
2017,05,24,17,45,2.10
2017,05,24,17,46,1.50
2017,05,24,17,47,3.40
2017,05,24,17,48,2.00
2017,05,24,17,49,1.40
2017,05,24,17,50,0.80
2017,05,24,17,51,1.10
2017,05,24,17,52,1.90
2017,05,24,17,53,3.00
2017,05,24,17,54,2.10
2017,05,24,17,55,1.50
2017,05,24,17,56,1.40
2017,05,24,17,57,1.50
2017,05,24,17,58,1.70
2017,05,24,17,59,2.00
2017,05,24,18,00,2.30
2017,05,24,18,01,4.20
2017,05,24,18,02,2.70
2017,05,24,18,03,1.50
2017,05,24,18,04,2.90